KJ4RUS Largo FL US current weather conditions

sailwx.info

Wind from 344

Air temperature 11.7° C
Dewpoint 6.4° C

Last reported at 2020-Jan-22 22:01 UTC.
Time now 2020-Jan-22 23:10 UTC

Location: N 27°54' W 082°49'.
View on Google Maps.

See reports from other nearby stations

  
Tides and Currents Weather Stations Pressure Air Temp Water Temp Dewpoint Dewpoint Depression Visibility Wind Speed Wind Dir Waves Ship Positions
date/time (UTC)wind fromknots sea level pressurealtimeterstation pressurevisibilityair tempwater tempwave heightnotes
2020-Jan-22 22:01 344 11.7
2020-Jan-22 21:46 343 11.1
2020-Jan-22 21:32 312 11.1
2020-Jan-22 21:17 355 11.1
2020-Jan-22 21:03 349 11.1
2020-Jan-22 20:48 355 11.1
2020-Jan-22 20:31 311 10.6
2020-Jan-22 20:19 315 10.6
2020-Jan-22 20:02 011 10.0
2020-Jan-22 19:47 017 10.0
2020-Jan-22 19:31 311 9.4
2020-Jan-22 19:17 323 10.0
2020-Jan-22 19:01 314 9.4
2020-Jan-22 18:46 009 8.9
2020-Jan-22 18:31 338 8.9
2020-Jan-22 18:16 350 8.3
2020-Jan-22 18:02 336 8.3
2020-Jan-22 17:46 338 8.3
2020-Jan-22 17:31 324 7.8
2020-Jan-22 17:16 315 7.2
2020-Jan-22 17:01 321 7.2
2020-Jan-22 16:46 355 7.2
2020-Jan-22 16:31 328 6.7
2020-Jan-22 16:15 355 6.7
2020-Jan-22 16:00 318 6.7
2020-Jan-22 15:45 011 6.7
2020-Jan-22 15:30 005 6.1
2020-Jan-22 15:15 346 6.1
2020-Jan-22 15:02 321 6.1
2020-Jan-22 14:46 017 5.6
2020-Jan-22 14:33 026 5.6
2020-Jan-22 14:19 346 5.0
2020-Jan-22 14:01 005 5.0
2020-Jan-22 13:46 053 3.9
2020-Jan-22 13:32 038 2.8
2020-Jan-22 13:16 344 2.2
2020-Jan-22 13:01 012 1.7
2020-Jan-22 12:46 005 1.1
2020-Jan-22 12:30 019 1.1
2020-Jan-22 12:16 029 1.1
2020-Jan-22 12:00 031 1.1
2020-Jan-22 11:46 017 1.1
2020-Jan-22 11:30 005 1.7
2020-Jan-22 11:16 035 1.7
2020-Jan-22 11:01 010 1.7
2020-Jan-22 10:45 018 1.7
2020-Jan-22 10:31 355 1.7
2020-Jan-22 10:16 311 1.7
2020-Jan-22 10:00 017 1.7
2020-Jan-22 09:46 360 2.2
2020-Jan-22 09:30 360 2.2
2020-Jan-22 09:15 019 2.2
2020-Jan-22 09:00 023 2.8
2020-Jan-22 08:45 321 2.8
2020-Jan-22 08:30 038 2.8
2020-Jan-22 08:15 027 2.8
2020-Jan-22 08:00 005 2.8
2020-Jan-22 07:45 010 3.3
2020-Jan-22 07:30 009 3.3
2020-Jan-22 06:47 005 3.3
2020-Jan-22 06:32 005 3.3
2020-Jan-22 06:02 011 3.9
2020-Jan-22 05:46 009 3.9
2020-Jan-22 05:31 360 3.9
2020-Jan-22 05:02 028 4.4
2020-Jan-22 04:46 341 4.4
2020-Jan-22 04:30 036 4.4
2020-Jan-22 04:01 014 5.0
2020-Jan-22 03:46 055 5.0
2020-Jan-22 03:31 346 5.6
2020-Jan-22 03:01 049 5.6
2020-Jan-22 02:46 355 6.1
2020-Jan-22 02:31 017 6.1
2020-Jan-22 02:00 042 6.7
2020-Jan-22 01:46 022 6.7
2020-Jan-22 01:31 344 7.2
2020-Jan-22 01:01 355 7.8
2020-Jan-22 00:46 005 7.8
2020-Jan-22 00:31 348 7.8
2020-Jan-22 00:02 360 7.8
2020-Jan-21 23:46 333 8.3
2020-Jan-21 23:30 336 8.3
2020-Jan-21 23:01 355 8.3
2020-Jan-21 22:45 019 8.3
2020-Jan-21 22:30 355 8.9
2020-Jan-21 22:01 355 8.9
2020-Jan-21 21:47 341 9.4
2020-Jan-21 21:31 023 9.4
2020-Jan-21 21:00 288 9.4
2020-Jan-21 20:45 005 9.4
2020-Jan-21 20:30 023 10.0
2020-Jan-21 20:01 360 10.0
2020-Jan-21 19:45 355 10.0
2020-Jan-21 19:32 340 9.4
2020-Jan-21 19:01 360 10.0
2020-Jan-21 18:45 021 9.4
2020-Jan-21 18:31 348 9.4
2020-Jan-21 18:01 360 10.0
2020-Jan-21 17:45 348 9.4
2020-Jan-21 17:30 360 9.4
2020-Jan-21 17:00 323 9.4
2020-Jan-21 16:45 346 9.4
2020-Jan-21 16:30 355 9.4
2020-Jan-21 16:00 337 9.4
2020-Jan-21 15:45 015 9.4
2020-Jan-21 15:30 009 9.4
2020-Jan-21 15:01 302 8.9
2020-Jan-21 14:46 295 8.9
2020-Jan-21 14:31 042 8.9
2020-Jan-21 14:01 351 7.8
2020-Jan-21 13:46 010 7.2
2020-Jan-21 13:31 099 6.7
2020-Jan-21 13:00 019 5.6
2020-Jan-21 12:46 014 5.0
2020-Jan-21 12:30 036 5.0
2020-Jan-21 12:00 005 5.0
2020-Jan-21 11:45 005 5.0
2020-Jan-21 11:30 013 5.0
2020-Jan-21 11:00 355 4.4
2020-Jan-21 10:45 005 5.0
2020-Jan-21 10:31 346 5.0
2020-Jan-21 10:00 005 5.0
2020-Jan-21 09:46 015 5.0
2020-Jan-21 09:30 005 5.6
2020-Jan-21 09:00 333 5.6
2020-Jan-21 08:49 005 6.1
2020-Jan-21 08:32 355 6.1
2020-Jan-21 08:01 024 6.1
2020-Jan-21 07:46 024 6.7
2020-Jan-21 07:31 013 6.7
2020-Jan-21 07:02 019 7.2
2020-Jan-21 06:47 032 7.2
2020-Jan-21 06:31 032 7.2
2020-Jan-21 06:01 360 7.8
2020-Jan-21 05:47 355 8.3
2020-Jan-21 05:31 039 8.3
2020-Jan-21 05:00 015 8.9
2020-Jan-21 04:46 031 8.9
2020-Jan-21 04:31 014 9.4
2020-Jan-21 04:00 011 10.0
2020-Jan-21 03:45 010 10.0
2020-Jan-21 03:31 355 10.0
2020-Jan-21 03:01 351 10.0
2020-Jan-21 02:46 016 10.6
2020-Jan-21 02:31 360 10.6
2020-Jan-21 02:02 343 11.1
2020-Jan-21 01:45 032 11.1
2020-Jan-21 01:30 345 11.1
2020-Jan-21 01:02 360 11.1
2020-Jan-21 00:46 009 11.1
2020-Jan-21 00:31 355 11.1
2020-Jan-21 00:00 347 11.7
2020-Jan-20 23:45 355 11.7
2020-Jan-20 23:31 351 11.1
2020-Jan-20 23:00 324 11.1